Location: Dammartin
(48.9032°N, 1.6195°E)
Time: 10:31:04
(UTC+00:00)

Cosmos 2333 Rocket - Pass Details

Date: 03 February 2023
Orbit: 837 x 864 km, 70.8° (Epoch: 29 March)

Event Time Altitude Azimuth Distance (km) Brightness Sun altitude
Rises 19:55:13 0° 225° (SW) 3,382 5.8 -29.9°
Reaches altitude 10° 19:57:44 10° 231° (SW) 2,454 5.0 -30.3°
Maximum altitude 20:03:11 49° 306° (NW) 1,080 3.0 -31.2°
Enters shadow 20:04:24 42° 343° (NNW) 1,188 3.0 -31.4°
